Home > Weather > Ansbach > Past weeks

Flag for Germany Past Weather in Ansbach, Bavaria, Germany — Yesterday and Last 2 Weeks

Now
61 °F

Sunny.


Feels Like: 61 °F
Forecast: 62 / 90 °F
Wind: 6 mph from Southeast

Location: Ansbach / Katterbach

Current Time: Aug 26, 2016 at 8:59:01 AM

Latest Report: Aug 26, 2016 at 7:58 AM


Visibility: N/A

Pressure: 30.09 "Hg

Humidity: 82%

Dew Point: 56 °F

Location of AnsbachLocation

Past Weather in Ansbach — Graph

°F

Ansbach Temperature Yesterday

Maximum temperature yesterday: 86 °F (at 3:58 PM)
Minimum temperature yesterday: 60 °F (at 5:58 AM)
Average temperature yesterday: 72 °F

High & Low Weather Summary for the Past Weeks

 TemperatureHumidityPressure
High86 °F (Aug 25, 3:58 PM)100% (Aug 12, 6:58 AM)30.43 "Hg (Aug 12, 6:58 AM)
Low41 °F (Aug 11, 6:58 AM)25% (Aug 18, 2:58 PM)29.82 "Hg (Aug 18, 2:58 PM)
Average65 °F68%30.14 "Hg
* Reported Aug 11 6:58 AM — Aug 26 6:58 AM, Ansbach, Weather by CustomWeather, © 2016

Note: Actual official high and low records may vary slightly from our data, if they occured in-between our weather recording intervals... More about our weather records

Advertising

Ansbach Weather History for the Previous 24 Hours

Scroll right to see more
 ConditionsComfort  
Time TempWeatherWind HumidityBarometerVisibility
6:58 AM
Fri, Aug 26
57 °FClear.3 mph86%30.08 "HgN/A
5:58 AM59 °FClear.3 mph77%30.08 "HgN/A
4:58 AM59 °FClear.2 mph77%30.07 "HgN/A
3:58 AM62 °FClear.5 mph70%30.07 "HgN/A
2:58 AM63 °FClear.1 mph65%30.07 "HgN/A
1:58 AM65 °FClear.3 mph60%30.07 "HgN/A
12:58 AM64 °FClear.6 mph60%30.07 "HgN/A
11:58 PM
Thu, Aug 25
70 °FClear.7 mph50%30.07 "HgN/A
10:58 PM71 °FClear.6 mph46%30.07 "HgN/A
9:58 PM73 °FClear.5 mph41%30.09 "HgN/A
8:58 PM75 °FSunny.5 mph39%30.09 "HgN/A
7:58 PM79 °FSunny.6 mph37%30.07 "HgN/A
6:58 PM82 °FSunny.6 mph28%30.07 "HgN/A
5:58 PM84 °FSunny.10 mph27%30.07 "HgN/A
4:58 PM86 °FSunny.8 mph27%30.08 "HgN/A
3:58 PM86 °FSunny.8 mph27%30.09 "HgN/A
2:58 PM84 °FSunny.6 mph32%30.10 "HgN/A
1:58 PM82 °FSunny.10 mph35%30.11 "HgN/A
12:58 PM80 °FSunny.9 mph40%30.12 "HgN/A
11:58 AM77 °FSunny.8 mph43%30.14 "HgN/A
10:58 AM74 °FSunny.13 mph51%30.15 "HgN/A
9:58 AM70 °FSunny.12 mph64%30.15 "HgN/A
8:58 AM67 °FSunny.9 mph71%30.15 "HgN/A
Weather by CustomWeather, © 2016

See weather overviewHow to use our weather pages